Flag for United Arab Emirates Weather past 2 weeks in Umm al-Quwain, Umm al-Quwain, United Arab Emirates

Now
100 °F

Sunny.


Feels Like: 106 °F
Forecast: 91 / 98 °F
Wind: 13 mph from Northwest

Location: Sharjah International Airport

Current Time: Aug 20, 2014 at 6:50:19 PM

Latest Report: Aug 20, 2014 at 6:00 PM


Visibility: 10 mi

Pressure: 29.65 "Hg

Humidity: 35%

Dew point: 68 °F

Location of Umm al-QuwainLocation

Historic Weather in Umm al-Quwain — Graph

°F

Umm al-Quwain temperature yesterday

Maximum temperature yesterday: 104 °F (at 1:00 PM)
Minimum temperature yesterday: 90 °F (at 4:00 AM)
Average temperature yesterday: 96 °F

Past Weeks' High & Low Weather Summary

 TemperatureHumidityPressure
High117 °F (Aug 16, 1:00 PM)84% (Aug 7, 6:00 AM)29.77 "Hg (Aug 7, 6:00 AM)
Low86 °F (Aug 9, 6:00 AM)10% (Aug 16, 1:00 PM)29.36 "Hg (Aug 5, 6:00 PM)
Average98 °F51%29.51 "Hg
* Reported Aug 5 6:00 PM — Aug 20 6:00 PM, Umm al-Quwain, Weather by CustomWeather, © 2014

Note: Actual official high and low records may vary slightly from our data, if they occured in-between our weather recording intervals... More about our weather records

Advertising

Umm al-Quwain weather history for previous 24 hours

 ConditionsComfort  
Time TempWeatherWind HumidityBarometerVisibility
6:00 PM
Aug 20
100 °FSunny.13 mph35%29.65 "Hg10 mi
5:00 PM100 °FClear.16 mph35%29.65 "Hg5 mi
4:00 PM102 °FClear.15 mph35%29.65 "Hg5 mi
3:00 PM102 °FClear.18 mph33%29.65 "Hg5 mi
2:00 PM104 °FClear.16 mph35%29.68 "Hg4 mi
1:00 PM106 °FClear.7 mph30%29.71 "Hg4 mi
12:00 PM104 °FClear.9 mph31%29.71 "Hg5 mi
11:00 AM102 °FClear.9 mph33%29.74 "Hg5 mi
10:00 AM97 °FPassing clouds.9 mph42%29.74 "HgN/A
9:00 AM95 °FSunny.9 mph44%29.77 "Hg10 mi
8:00 AM93 °FPassing clouds.7 mph47%29.77 "HgN/A
7:00 AM91 °FSunny.6 mph44%29.74 "Hg10 mi
6:00 AM90 °FSunny.6 mph43%29.71 "Hg10 mi
5:00 AM91 °FClear.6 mph41%29.68 "Hg10 mi
4:00 AM91 °FClear.5 mph44%29.68 "Hg10 mi
3:00 AM91 °FClear.5 mph46%29.68 "Hg10 mi
2:00 AM91 °FClear.No wind46%29.68 "Hg10 mi
1:00 AM93 °FPassing clouds.3 mph44%29.71 "HgN/A
12:00 AM95 °FClear.3 mph44%29.71 "Hg10 mi
11:00 PM
Aug 19
93 °FClear.5 mph47%29.71 "Hg10 mi
10:00 PM95 °FClear.3 mph41%29.71 "Hg10 mi
9:00 PM97 °FClear.2 mph39%29.71 "Hg10 mi
8:00 PM97 °FClear.3 mph37%29.71 "Hg10 mi
7:00 PM99 °FClear.6 mph37%29.68 "Hg5 mi
6:00 PM100 °FClear.8 mph35%29.68 "Hg5 mi
Weather by CustomWeather, © 2014

See weather overviewHow to use our weather pages